Location: *
(45.9500°N, 9.0833°E)
Time: 05:57:39
(UTC+00:00)

SR - Pass Details

Date: 16 June 2021
Orbit: 577 x 878 km, 66.7° (Epoch: 24 July)

Event Time Altitude Azimuth Distance (km) Brightness Sun altitude
Rises 00:11:41 0° 330° (NNW) 3,363 ? -19.9°
Reaches altitude 10° 00:14:34 10° 342° (NNW) 2,381 ? -19.8°
Maximum altitude 00:19:13 28° 41° (NE) 1,405 ? -19.6°
Drops below altitude 10° 00:23:32 10° 100° (E) 2,198 ? -19.4°
Sets 00:26:05 0° 112° (ESE) 3,060 ? -19.3°
